Volver al catálogo

STARLINK-38293

ActivoComunicacionesSSO
NORAD 100387·PAYLOAD·🇺🇸 United States

Lanzado Aug 19, 2026 desde Vandenberg Space Force Base

Loading…

Próximos Pases (próximas 24 horas)

TLE

ActualizadoSource: Space-Track

Época: Sep 14, 2026, 20:34 UTC

1 A0387U 26190S   26257.85717582 -.01013738  00000-0 -90772-2 0  9993
2 A0387  97.2830 111.8782 0001204 115.3029 244.8359 15.70766193  5482

Sigue STARLINK-38293 en tiempo real con AllMySat

Download on the App Store